Regional Weather Roundup
Issued by NWS

Home | Current Version | Previous Version | Text Only | Print | Product List | Glossary On
Versions: 1 2 3 4 5 6 7 8 9 10 11 12 13 14 15 16 17 18 19 20 21 22 23 24 25 26 27
000
ASUS44 KJAN 252120
RWRMS

MISSISSIPPI HOURLY WEATHER ROUNDUP
NATIONAL WEATHER SERVICE JACKSON MS
400 PM CDT SUN SEP 25 2016

NOTE: "FAIR: INDICATES FEW OR NO CLOUDS BELOW 12,000 FEET WITH NO
SIGNIFICANT WEATHER AND/OR OBSTRUCTIONS TO VISIBILITY.

MSZ001>002-007>008-010>013-018>021-025>028-034>036-252200-
NORTHWEST MISSISSIPPI

CITY           SKY/WX    TMP DP  RH WIND       PRES   REMARKS
BATESVILLE     FAIR      97  57  26 CALM      29.96F HX  96
CLARKSDALE     MOSUNNY   95  68  41 E8G15     29.95F HX  99
CLEVELAND      MOCLDY    89  68  49 W10G18    29.96S HX  92
GREENWOOD      MOSUNNY   90  65  43 VRB3      29.94F HX  92
GREENVILLE     LGT RAIN  84  67  56 NE10      29.96R
OLIVE BRANCH   MOSUNNY  N/A N/A N/A NE6       29.97F
OXFORD         FAIR      93  57  29 CALM      29.98F HX  92
TUNICA         CLOUDY    93  63  36 NE3       29.96F HX  94
WINONA         CLOUDY    94  65  37 W7        29.95S HX  96
$$

MSZ003>006-009-014>017-022>024-029>033-037>039-252200-
NORTHEAST MISSISSIPPI

CITY           SKY/WX    TMP DP  RH WIND       PRES   REMARKS
COLUMBUS AFB   SUNNY     98  59  26 E5        29.93F HX  98
CORINTH        FAIR      95  55  26 CALM      29.96F HX  93
STARKVILLE     FAIR      95  61  31 SE5       29.96F HX  95
TUPELO         SUNNY     97  53  22 N6        29.95F HX  94
$$

MSZ040-058-252200-
CENTRAL MISSISSIPPI

CITY           SKY/WX    TMP DP  RH WIND       PRES   REMARKS
JACKSON INTL   LGT RAIN  83  67  58 SW9       29.97F
JACKSON HAWKNS HVY RAIN  75  69  81 SW17      29.98F
MADISON        FAIR      86  68  54 SW7G17    29.95F
MERIDIAN KEY   CLOUDY    92  64  39 NE8       29.95F HX  93
MERIDIAN NAS   CLOUDY    88  63  43 CALM      29.96F
VICKSBURG VKS  CLEAR     91  70  49 VRB3      29.95F HX  97
$$

MSZ059>079-252200-
SOUTH MISSISSIPPI

CITY           SKY/WX    TMP DP  RH WIND       PRES   REMARKS
BROOKHAVEN     FAIR     N/A N/A N/A S8        29.98F
COLUMBIA       FAIR      91  70  49 SW6       29.98F HX  97
HATTIESBURG    MOSUNNY   90  71  53 NW3       29.95F HX  96
LAUREL         MOCLDY    94  66  39 W6        29.95F HX  97
MCCOMB         MOSUNNY   91  66  43 S8        29.97F HX  93
NATCHEZ        MOSUNNY   91  70  49 S3        29.96F HX  97
PINE BELT      MOSUNNY   93  64  38 S5        29.96F HX  95
$$

MSZ080>082-252200-
COASTAL MISSISSIPPI

CITY           SKY/WX    TMP DP  RH WIND       PRES   REMARKS
BAY ST LOUIS   MOSUNNY   86  64  48 S5        29.96F
BILOXI         MOSUNNY   89  72  57 SW9       29.95F HX  96
PASCAGOULA     PTSUNNY   84  72  67 NE5       29.96F
GULFPORT       MOSUNNY   91  70  49 S6        29.95F HX  96
$$

LAZ007>009-015>016-023>026-252200-
NORTHEAST LOUISIANA

CITY           SKY/WX    TMP DP  RH WIND       PRES   REMARKS
BASTROP        FAIR      94  67  40 CALM      29.96F HX  98
TALLULAH/VBURG MOSUNNY   94  63  35 VRB3      29.94F HX  95
$$




USA.gov is the U.S. government's official web portal to all federal, state and local government web resources and services.